Location: Aranbee
(34.0885°N, 118.2342°W)
Time: 11:47:49
(UTC+00:00)

S-56A Canister/Altair - Pass Details

Date: 05 August 2021
Orbit: 632 x 2500 km, 38.9° (Epoch: 18 September)

Event Time Altitude Azimuth Distance (km) Brightness Sun altitude
Rises 03:29:51 0° 293° (WNW) 6,140 14.6 -8.2°
Reaches altitude 10° 03:33:54 10° 290° (WNW) 5,165 13.4 -9.0°
Maximum altitude 03:48:36 60° 216° (SW) 2,556 10.2 -11.6°
Enters shadow 03:59:32 13° 142° (SE) 4,005 10.6 -13.6°
